Time,TemperatureF,DewpointF,PressureIn,WindDirection,WindDirectionDegrees,WindSpeedMPH,WindSpeedGustMPH,Humidity,HourlyPrecipIn,Conditions,Clouds,dailyrainin,SoftwareType,DateUTC
2013-01-27 00:00:00,13.8,-12.6,30.36,WNW,292,0.0,0.0,29,0.00,,---,0.00,VWS V14.01,2013-01-27 05:00:00,
2013-01-27 00:02:00,13.8,-12.6,30.36,WNW,292,0.0,0.0,29,0.00,,---,0.00,VWS V14.01,2013-01-27 05:02:00,
2013-01-27 00:03:00,13.8,-12.6,30.36,WNW,292,0.0,0.0,29,0.00,,---,0.00,VWS V14.01,2013-01-27 05:03:00,
2013-01-27 00:08:00,13.5,-12.9,30.36,WNW,292,0.0,0.0,29,0.00,,---,0.00,VWS V14.01,2013-01-27 05:08:00,
2013-01-27 00:10:00,13.5,-12.9,30.36,WNW,292,0.0,0.0,29,0.00,,---,0.00,VWS V14.01,2013-01-27 05:10:00,
2013-01-27 00:13:00,13.3,-13.0,30.36,WNW,292,0.0,0.0,29,0.00,,---,0.00,VWS V14.01,2013-01-27 05:13:00,
2013-01-27 00:18:00,13.1,-13.2,30.36,WNW,292,0.0,0.0,29,0.00,,---,0.00,VWS V14.01,2013-01-27 05:18:00,
2013-01-27 00:20:00,13.1,-13.2,30.36,WNW,292,0.0,0.0,29,0.00,,---,0.00,VWS V14.01,2013-01-27 05:20:00,
2013-01-27 00:23:00,12.9,-13.3,30.36,WNW,292,0.0,0.0,29,0.00,,---,0.00,VWS V14.01,2013-01-27 05:23:00,
2013-01-27 00:28:00,12.7,-13.5,30.36,WNW,292,0.0,0.0,29,0.00,,---,0.00,VWS V14.01,2013-01-27 05:28:00,
2013-01-27 00:30:00,12.6,-13.6,30.36,WNW,292,0.0,0.0,29,0.00,,---,0.00,VWS V14.01,2013-01-27 05:30:00,
2013-01-27 00:34:00,12.6,-13.6,30.36,WNW,292,0.0,0.0,29,0.00,,---,0.00,VWS V14.01,2013-01-27 05:34:00,
2013-01-27 00:39:00,12.2,-14.0,30.36,WNW,292,0.0,0.0,29,0.00,,---,0.00,VWS V14.01,2013-01-27 05:39:00,
2013-01-27 00:40:00,12.2,-14.0,30.36,WNW,292,0.0,0.0,29,0.00,,---,0.00,VWS V14.01,2013-01-27 05:40:00,
2013-01-27 00:44:00,12.0,-14.1,30.36,WNW,292,0.0,0.0,29,0.00,,---,0.00,VWS V14.01,2013-01-27 05:44:00,
2013-01-27 00:49:00,12.0,-14.1,30.36,WNW,292,0.0,0.0,29,0.00,,---,0.00,VWS V14.01,2013-01-27 05:49:00,
2013-01-27 00:50:00,12.0,-14.1,30.36,WNW,292,0.0,0.0,29,0.00,,---,0.00,VWS V14.01,2013-01-27 05:50:00,
2013-01-27 00:54:00,12.0,-14.1,30.36,South,180,0.0,1.1,29,0.00,,---,0.00,VWS V14.01,2013-01-27 05:54:00,
2013-01-27 00:59:00,12.0,-14.1,30.39,South,180,0.0,1.1,29,0.00,,---,0.00,VWS V14.01,2013-01-27 05:59:00,
2013-01-27 01:00:00,12.0,-14.1,30.39,South,180,0.0,1.1,29,0.00,,---,0.00,VWS V14.01,2013-01-27 06:00:00,
2013-01-27 01:04:00,12.0,-14.1,30.39,South,180,0.0,0.0,29,0.00,,---,0.00,VWS V14.01,2013-01-27 06:04:00,
2013-01-27 01:09:00,11.8,-14.3,30.39,South,180,0.0,0.0,29,0.00,,---,0.00,VWS V14.01,2013-01-27 06:09:00,
2013-01-27 01:10:00,11.8,-14.3,30.39,South,180,0.0,0.0,29,0.00,,---,0.00,VWS V14.01,2013-01-27 06:10:00,
2013-01-27 01:14:00,11.7,-14.4,30.39,South,180,0.0,0.0,29,0.00,,---,0.00,VWS V14.01,2013-01-27 06:14:00,
2013-01-27 01:19:00,11.7,-14.4,30.39,South,180,0.0,0.0,29,0.00,,---,0.00,VWS V14.01,2013-01-27 06:19:00,
2013-01-27 01:20:00,11.7,-14.4,30.39,South,180,0.0,0.0,29,0.00,,---,0.00,VWS V14.01,2013-01-27 06:20:00,
2013-01-27 01:25:00,11.5,-14.6,30.39,South,180,0.0,0.0,29,0.00,,---,0.00,VWS V14.01,2013-01-27 06:25:00,
2013-01-27 01:30:00,11.3,-14.8,30.39,South,180,0.0,0.0,29,0.00,,---,0.00,VWS V14.01,2013-01-27 06:30:00,
2013-01-27 01:35:00,11.1,-14.9,30.39,South,180,0.0,0.0,29,0.00,,---,0.00,VWS V14.01,2013-01-27 06:35:00,
2013-01-27 01:40:00,11.1,-14.9,30.39,South,180,0.0,0.0,29,0.00,,---,0.00,VWS V14.01,2013-01-27 06:40:00,
2013-01-27 01:45:00,10.9,-15.1,30.39,South,180,0.0,0.0,29,0.00,,---,0.00,VWS V14.01,2013-01-27 06:45:00,
2013-01-27 01:50:00,10.8,-15.2,30.39,South,180,0.0,0.0,29,0.00,,---,0.00,VWS V14.01,2013-01-27 06:50:00,
2013-01-27 01:55:00,10.4,-15.6,30.39,SW,225,1.6,1.6,29,0.00,,---,0.00,VWS V14.01,2013-01-27 06:55:00,
2013-01-27 02:00:00,10.8,-15.2,30.39,WNW,292,0.0,0.0,29,0.00,,---,0.00,VWS V14.01,2013-01-27 07:00:00,
2013-01-27 02:05:00,10.8,-15.2,30.39,SSW,202,0.0,0.0,29,0.00,,---,0.00,VWS V14.01,2013-01-27 07:05:00,
2013-01-27 02:10:00,10.8,-15.2,30.39,WNW,292,0.0,0.9,29,0.00,,---,0.00,VWS V14.01,2013-01-27 07:10:00,
2013-01-27 02:13:00,10.6,-15.4,30.39,West,270,0.0,0.0,29,0.00,,---,0.00,VWS V14.01,2013-01-27 07:13:00,
2013-01-27 02:18:00,10.4,-15.6,30.39,West,270,0.0,0.0,29,0.00,,---,0.00,VWS V14.01,2013-01-27 07:18:00,
2013-01-27 02:20:00,10.4,-15.6,30.39,West,270,0.0,0.0,29,0.00,,---,0.00,VWS V14.01,2013-01-27 07:20:00,
2013-01-27 02:23:00,10.4,-15.6,30.39,West,270,0.0,0.0,29,0.00,,---,0.00,VWS V14.01,2013-01-27 07:23:00,
2013-01-27 02:28:00,10.8,-15.2,30.39,West,270,0.0,0.0,29,0.00,,---,0.00,VWS V14.01,2013-01-27 07:28:00,
2013-01-27 02:30:00,10.8,-15.2,30.39,West,270,0.0,0.0,29,0.00,,---,0.00,VWS V14.01,2013-01-27 07:30:00,
2013-01-27 02:33:00,10.8,-15.2,30.39,West,270,0.0,0.0,29,0.00,,---,0.00,VWS V14.01,2013-01-27 07:33:00,
2013-01-27 02:38:00,10.6,-15.4,30.39,West,270,0.0,0.0,29,0.00,,---,0.00,VWS V14.01,2013-01-27 07:38:00,
2013-01-27 02:40:00,10.8,-15.2,30.39,West,270,0.0,0.0,29,0.00,,---,0.00,VWS V14.01,2013-01-27 07:40:00,
2013-01-27 02:44:00,10.6,-15.4,30.39,West,270,0.0,0.0,29,0.00,,---,0.00,VWS V14.01,2013-01-27 07:44:00,
2013-01-27 02:49:00,10.4,-15.6,30.39,West,270,0.0,0.0,29,0.00,,---,0.00,VWS V14.01,2013-01-27 07:49:00,
2013-01-27 02:50:00,10.2,-15.7,30.39,West,270,0.0,0.0,29,0.00,,---,0.00,VWS V14.01,2013-01-27 07:50:00,
2013-01-27 02:54:00,10.2,-15.7,30.39,West,270,0.0,0.0,29,0.00,,---,0.00,VWS V14.01,2013-01-27 07:54:00,
2013-01-27 02:59:00,10.2,-15.7,30.39,West,270,0.0,0.0,29,0.00,,---,0.00,VWS V14.01,2013-01-27 07:59:00,
2013-01-27 03:00:00,10.2,-15.7,30.39,West,270,0.0,0.0,29,0.00,,---,0.00,VWS V14.01,2013-01-27 08:00:00,
2013-01-27 03:04:00,10.0,-15.9,30.39,West,270,0.0,0.0,29,0.00,,---,0.00,VWS V14.01,2013-01-27 08:04:00,
2013-01-27 03:09:00,9.9,-16.0,30.39,West,270,0.0,0.0,29,0.00,,---,0.00,VWS V14.01,2013-01-27 08:09:00,
2013-01-27 03:10:00,9.9,-16.0,30.39,West,270,0.0,0.0,29,0.00,,---,0.00,VWS V14.01,2013-01-27 08:10:00,
2013-01-27 03:14:00,9.7,-16.2,30.39,West,270,0.0,0.0,29,0.00,,---,0.00,VWS V14.01,2013-01-27 08:14:00,
2013-01-27 03:19:00,9.7,-16.2,30.39,West,270,0.0,0.0,29,0.00,,---,0.00,VWS V14.01,2013-01-27 08:19:00,
2013-01-27 03:20:00,9.7,-16.2,30.39,West,270,0.0,0.0,29,0.00,,---,0.00,VWS V14.01,2013-01-27 08:20:00,
2013-01-27 03:24:00,9.7,-16.2,30.39,West,270,0.0,0.0,29,0.00,,---,0.00,VWS V14.01,2013-01-27 08:24:00,
2013-01-27 03:29:00,9.7,-16.2,30.39,West,270,0.0,0.0,29,0.00,,---,0.00,VWS V14.01,2013-01-27 08:29:00,
2013-01-27 03:30:00,9.7,-16.2,30.39,West,270,0.0,0.0,29,0.00,,---,0.00,VWS V14.01,2013-01-27 08:30:00,
2013-01-27 03:34:00,9.7,-16.2,30.39,West,270,0.0,0.0,29,0.00,,---,0.00,VWS V14.01,2013-01-27 08:34:00,
2013-01-27 03:40:00,9.5,-16.3,30.39,West,270,0.0,0.0,29,0.00,,---,0.00,VWS V14.01,2013-01-27 08:40:00,
2013-01-27 03:45:00,9.5,-16.3,30.41,West,270,0.0,0.0,29,0.00,,---,0.00,VWS V14.01,2013-01-27 08:45:00,
2013-01-27 03:50:00,9.3,-16.5,30.41,West,270,0.0,0.0,29,0.00,,---,0.00,VWS V14.01,2013-01-27 08:50:00,
2013-01-27 03:55:00,9.3,-16.5,30.41,West,270,0.0,0.0,29,0.00,,---,0.00,VWS V14.01,2013-01-27 08:55:00,
2013-01-27 04:00:00,9.3,-16.5,30.41,West,270,0.0,0.0,29,0.00,,---,0.00,VWS V14.01,2013-01-27 09:00:00,
2013-01-27 04:05:00,9.5,-16.3,30.41,West,270,0.0,0.0,29,0.00,,---,0.00,VWS V14.01,2013-01-27 09:05:00,
2013-01-27 04:10:00,9.9,-16.0,30.39,South,180,0.0,1.3,29,0.00,,---,0.00,VWS V14.01,2013-01-27 09:10:00,
2013-01-27 04:15:00,10.0,-15.9,30.39,SSW,202,1.3,1.6,29,0.00,,---,0.00,VWS V14.01,2013-01-27 09:15:00,
2013-01-27 04:20:00,9.9,-16.0,30.39,SSW,202,0.0,0.0,29,0.00,,---,0.00,VWS V14.01,2013-01-27 09:20:00,
2013-01-27 04:25:00,9.7,-16.2,30.39,SSW,202,0.0,0.0,29,0.00,,---,0.00,VWS V14.01,2013-01-27 09:25:00,
2013-01-27 04:30:00,9.5,-16.3,30.39,SSW,202,0.0,0.0,29,0.00,,---,0.00,VWS V14.01,2013-01-27 09:30:00,
2013-01-27 04:36:00,9.3,-16.5,30.39,SSW,202,0.0,0.0,29,0.00,,---,0.00,VWS V14.01,2013-01-27 09:36:00,
2013-01-27 04:40:00,9.1,-16.7,30.42,WSW,248,0.0,0.0,29,0.00,,---,0.00,VWS V14.01,2013-01-27 09:40:00,
2013-01-27 04:41:00,9.1,-16.7,30.41,WSW,248,0.0,0.0,29,0.00,,---,0.00,VWS V14.01,2013-01-27 09:41:00,
2013-01-27 04:46:00,9.0,-16.8,30.41,West,270,0.0,0.0,29,0.00,,---,0.00,VWS V14.01,2013-01-27 09:46:00,
2013-01-27 04:50:00,8.8,-17.0,30.42,West,270,0.0,0.0,29,0.00,,---,0.00,VWS V14.01,2013-01-27 09:50:00,
2013-01-27 04:51:00,8.8,-17.0,30.41,West,270,0.0,0.0,29,0.00,,---,0.00,VWS V14.01,2013-01-27 09:51:00,
2013-01-27 04:56:00,8.6,-17.1,30.41,West,270,0.0,0.0,29,0.00,,---,0.00,VWS V14.01,2013-01-27 09:56:00,
2013-01-27 05:00:00,8.6,-17.1,30.42,West,270,0.0,0.0,29,0.00,,---,0.00,VWS V14.01,2013-01-27 10:00:00,
2013-01-27 05:01:00,8.6,-17.1,30.41,West,270,0.0,0.0,29,0.00,,---,0.00,VWS V14.01,2013-01-27 10:01:00,
2013-01-27 05:06:00,8.4,-17.3,30.41,West,270,0.0,0.0,29,0.00,,---,0.00,VWS V14.01,2013-01-27 10:06:00,
2013-01-27 05:10:00,8.4,-17.3,30.42,West,270,0.0,0.0,29,0.00,,---,0.00,VWS V14.01,2013-01-27 10:10:00,
2013-01-27 05:11:00,8.4,-17.3,30.41,West,270,0.0,0.0,29,0.00,,---,0.00,VWS V14.01,2013-01-27 10:11:00,
2013-01-27 05:16:00,8.4,-17.3,30.41,West,270,0.0,0.0,29,0.00,,---,0.00,VWS V14.01,2013-01-27 10:16:00,
2013-01-27 05:20:00,8.6,-17.1,30.42,West,270,0.0,0.0,29,0.00,,---,0.00,VWS V14.01,2013-01-27 10:20:00,
2013-01-27 05:21:00,8.6,-17.1,30.41,West,270,0.0,0.0,29,0.00,,---,0.00,VWS V14.01,2013-01-27 10:21:00,
2013-01-27 05:26:00,8.6,-17.1,30.41,West,270,0.0,0.0,29,0.00,,---,0.00,VWS V14.01,2013-01-27 10:26:00,
2013-01-27 05:30:00,8.6,-17.1,30.42,West,270,0.0,0.0,29,0.00,,---,0.00,VWS V14.01,2013-01-27 10:30:00,
2013-01-27 05:32:00,8.6,-17.1,30.41,West,270,0.0,0.0,29,0.00,,---,0.00,VWS V14.01,2013-01-27 10:32:00,
2013-01-27 05:37:00,8.8,-17.0,30.41,West,270,0.0,0.0,29,0.00,,---,0.00,VWS V14.01,2013-01-27 10:37:00,
2013-01-27 05:40:00,8.8,-17.0,30.42,SW,225,0.0,1.3,29,0.00,,---,0.00,VWS V14.01,2013-01-27 10:40:00,
2013-01-27 05:42:00,9.0,-16.8,30.41,West,270,1.1,1.1,29,0.00,,---,0.00,VWS V14.01,2013-01-27 10:42:00,
2013-01-27 05:47:00,9.0,-16.8,30.41,West,270,0.0,1.1,29,0.00,,---,0.00,VWS V14.01,2013-01-27 10:47:00,
2013-01-27 05:50:00,9.0,-16.8,30.42,West,270,0.0,1.1,29,0.00,,---,0.00,VWS V14.01,2013-01-27 10:50:00,
2013-01-27 05:52:00,9.0,-16.8,30.41,West,270,1.6,2.2,29,0.00,,---,0.00,VWS V14.01,2013-01-27 10:52:00,
2013-01-27 05:57:00,9.1,-16.7,30.41,West,270,0.0,2.2,29,0.00,,---,0.00,VWS V14.01,2013-01-27 10:57:00,
2013-01-27 06:00:00,9.1,-16.7,30.42,WNW,292,1.6,2.2,29,0.00,,---,0.00,VWS V14.01,2013-01-27 11:00:00,
2013-01-27 06:02:00,9.1,-16.7,30.41,West,270,1.3,1.6,29,0.00,,---,0.00,VWS V14.01,2013-01-27 11:02:00,
2013-01-27 06:07:00,9.3,-16.5,30.41,West,270,0.9,2.2,29,0.00,,---,0.00,VWS V14.01,2013-01-27 11:07:00,
2013-01-27 06:10:00,9.3,-16.5,30.42,WSW,248,1.1,2.2,29,0.00,,---,0.00,VWS V14.01,2013-01-27 11:10:00,
2013-01-27 06:12:00,9.5,-16.3,30.41,West,270,2.5,3.1,29,0.00,,---,0.00,VWS V14.01,2013-01-27 11:12:00,
2013-01-27 06:17:00,9.9,-16.0,30.41,WNW,292,1.3,3.4,29,0.00,,---,0.00,VWS V14.01,2013-01-27 11:17:00,
2013-01-27 06:20:00,10.0,-15.9,30.42,NW,315,1.3,3.4,29,0.00,,---,0.00,VWS V14.01,2013-01-27 11:20:00,
2013-01-27 06:22:00,10.0,-15.9,30.41,WNW,292,1.3,2.7,29,0.00,,---,0.00,VWS V14.01,2013-01-27 11:22:00,
2013-01-27 06:28:00,10.4,-15.6,30.41,West,270,2.5,2.7,29,0.00,,---,0.00,VWS V14.01,2013-01-27 11:28:00,
2013-01-27 06:30:00,10.8,-15.2,30.42,West,270,2.9,3.1,29,0.00,,---,0.00,VWS V14.01,2013-01-27 11:30:00,
2013-01-27 06:33:00,10.9,-15.1,30.41,WNW,292,1.6,3.6,29,0.00,,---,0.00,VWS V14.01,2013-01-27 11:33:00,
2013-01-27 06:38:00,11.3,-14.8,30.41,WNW,292,2.7,5.4,29,0.00,,---,0.00,VWS V14.01,2013-01-27 11:38:00,
2013-01-27 06:40:00,11.3,-14.8,30.42,WNW,292,2.2,5.4,29,0.00,,---,0.00,VWS V14.01,2013-01-27 11:40:00,
2013-01-27 06:43:00,11.3,-14.8,30.41,WNW,292,2.0,2.7,29,0.00,,---,0.00,VWS V14.01,2013-01-27 11:43:00,
2013-01-27 06:48:00,11.1,-14.9,30.41,NE,45,0.9,2.9,29,0.00,,---,0.00,VWS V14.01,2013-01-27 11:48:00,
2013-01-27 06:50:00,11.1,-14.9,30.42,WNW,292,1.1,2.9,29,0.00,,---,0.00,VWS V14.01,2013-01-27 11:50:00,
2013-01-27 06:53:00,11.1,-14.9,30.41,West,270,1.3,2.2,29,0.00,,---,0.00,VWS V14.01,2013-01-27 11:53:00,
2013-01-27 06:58:00,10.9,-15.1,30.41,West,270,1.6,2.2,29,0.00,,---,0.00,VWS V14.01,2013-01-27 11:58:00,
2013-01-27 07:00:00,10.9,-15.1,30.42,WSW,248,2.2,2.2,29,0.00,,---,0.00,VWS V14.01,2013-01-27 12:00:00,
2013-01-27 07:03:00,10.8,-15.2,30.41,West,270,2.5,2.5,29,0.00,,---,0.00,VWS V14.01,2013-01-27 12:03:00,
2013-01-27 07:08:00,10.9,-15.1,30.41,West,270,2.9,2.9,29,0.00,,---,0.00,VWS V14.01,2013-01-27 12:08:00,
2013-01-27 07:10:00,10.9,-15.1,30.44,WNW,292,2.5,2.9,29,0.00,,---,0.00,VWS V14.01,2013-01-27 12:10:00,
2013-01-27 07:13:00,11.3,-14.8,30.44,West,270,2.7,3.1,29,0.00,,---,0.00,VWS V14.01,2013-01-27 12:13:00,
2013-01-27 07:19:00,11.3,-14.8,30.44,West,270,1.3,3.1,29,0.00,,---,0.00,VWS V14.01,2013-01-27 12:19:00,
2013-01-27 07:20:00,11.3,-14.8,30.44,West,270,2.0,3.1,29,0.00,,---,0.00,VWS V14.01,2013-01-27 12:20:00,
2013-01-27 07:24:00,11.3,-14.8,30.44,West,270,1.3,3.1,29,0.00,,---,0.00,VWS V14.01,2013-01-27 12:24:00,
2013-01-27 07:29:00,11.5,-14.6,30.47,WNW,292,0.0,3.1,29,0.00,,---,0.00,VWS V14.01,2013-01-27 12:29:00,
2013-01-27 07:30:00,11.5,-14.6,30.47,West,270,0.0,3.1,29,0.00,,---,0.00,VWS V14.01,2013-01-27 12:30:00,
2013-01-27 07:34:00,11.5,-14.6,30.47,West,270,1.1,1.3,29,0.00,,---,0.00,VWS V14.01,2013-01-27 12:34:00,
2013-01-27 07:39:00,11.7,-14.4,30.47,West,270,1.1,2.5,29,0.00,,---,0.00,VWS V14.01,2013-01-27 12:39:00,
2013-01-27 07:40:00,11.7,-14.4,30.44,West,270,0.0,2.5,29,0.00,,---,0.00,VWS V14.01,2013-01-27 12:40:00,
2013-01-27 07:44:00,11.8,-14.3,30.44,West,270,1.6,2.2,29,0.00,,---,0.00,VWS V14.01,2013-01-27 12:44:00,
2013-01-27 07:49:00,11.8,-14.3,30.44,West,270,1.3,2.2,29,0.00,,---,0.00,VWS V14.01,2013-01-27 12:49:00,
2013-01-27 07:50:00,12.0,-14.1,30.44,West,270,0.9,2.2,29,0.00,,---,0.00,VWS V14.01,2013-01-27 12:50:00,
2013-01-27 07:54:00,12.0,-14.1,30.44,West,270,0.0,2.0,29,0.00,,---,0.00,VWS V14.01,2013-01-27 12:54:00,
2013-01-27 07:59:00,12.6,-13.6,30.44,West,270,2.7,2.7,29,0.00,,---,0.00,VWS V14.01,2013-01-27 12:59:00,
2013-01-27 08:00:00,12.6,-13.6,30.44,West,270,2.7,2.7,29,0.00,,---,0.00,VWS V14.01,2013-01-27 13:00:00,
2013-01-27 08:04:00,12.9,-13.3,30.44,WNW,292,2.5,2.9,29,0.00,,---,0.00,VWS V14.01,2013-01-27 13:04:00,
2013-01-27 08:09:00,13.6,-12.7,30.44,West,270,2.5,3.1,29,0.00,,---,0.00,VWS V14.01,2013-01-27 13:09:00,
2013-01-27 08:10:00,13.8,-12.6,30.44,WNW,292,3.4,3.4,29,0.00,,---,0.00,VWS V14.01,2013-01-27 13:10:00,
2013-01-27 08:14:00,14.5,-7.0,30.44,WNW,292,2.5,3.8,37,0.00,,---,0.00,VWS V14.01,2013-01-27 13:14:00,
2013-01-27 08:20:00,15.4,-6.7,30.44,WNW,292,4.0,5.6,36,0.00,,---,0.00,VWS V14.01,2013-01-27 13:20:00,
2013-01-27 08:25:00,16.7,-6.2,30.44,NW,315,4.0,6.3,35,0.00,,---,0.00,VWS V14.01,2013-01-27 13:25:00,
2013-01-27 08:30:00,17.6,-6.0,30.44,NW,315,7.8,7.8,34,0.00,,---,0.00,VWS V14.01,2013-01-27 13:30:00,
2013-01-27 08:35:00,18.3,-6.0,30.44,WNW,292,8.7,8.7,33,0.00,,---,0.00,VWS V14.01,2013-01-27 13:35:00,
2013-01-27 08:40:00,19.0,-5.3,30.47,NNW,338,6.3,8.7,33,0.00,,---,0.00,VWS V14.01,2013-01-27 13:40:00,
2013-01-27 08:45:00,19.6,-5.5,30.47,West,270,3.1,8.5,32,0.00,,---,0.00,VWS V14.01,2013-01-27 13:45:00,
2013-01-27 08:50:00,20.3,-6.2,30.47,NW,315,2.9,4.7,30,0.00,,---,0.00,VWS V14.01,2013-01-27 13:50:00,
2013-01-27 08:55:00,20.7,-5.9,30.47,NW,315,6.0,7.6,30,0.00,,---,0.00,VWS V14.01,2013-01-27 13:55:00,
2013-01-27 09:00:00,21.0,-5.5,30.47,NW,315,3.6,6.3,30,0.00,,---,0.00,VWS V14.01,2013-01-27 14:00:00,
2013-01-27 09:06:00,21.6,-5.1,30.47,WNW,292,5.6,7.4,30,0.00,,---,0.00,VWS V14.01,2013-01-27 14:06:00,
2013-01-27 09:10:00,21.9,-6.9,30.47,NW,315,5.8,10.3,27,0.00,,---,0.00,VWS V14.01,2013-01-27 14:10:00,
2013-01-27 09:11:00,21.9,-6.9,30.47,WNW,292,5.4,5.8,27,0.00,,---,0.00,VWS V14.01,2013-01-27 14:11:00,
2013-01-27 09:16:00,22.8,-6.1,30.47,NW,315,6.0,7.4,27,0.00,,---,0.00,VWS V14.01,2013-01-27 14:16:00,
2013-01-27 09:20:00,23.2,-5.8,30.47,NW,315,4.7,8.1,27,0.00,,---,0.00,VWS V14.01,2013-01-27 14:20:00,
2013-01-27 09:21:00,23.4,-5.7,30.47,SW,225,3.1,4.7,27,0.00,,---,0.00,VWS V14.01,2013-01-27 14:21:00,
2013-01-27 09:26:00,23.7,-5.4,30.50,SSW,202,3.1,7.4,27,0.00,,---,0.00,VWS V14.01,2013-01-27 14:26:00,
2013-01-27 09:30:00,23.7,-5.4,30.50,WNW,292,3.1,8.1,27,0.00,,---,0.00,VWS V14.01,2013-01-27 14:30:00,
2013-01-27 09:31:00,23.9,-5.2,30.50,WNW,292,4.9,5.6,27,0.00,,---,0.00,VWS V14.01,2013-01-27 14:31:00,
2013-01-27 09:37:00,24.3,-4.9,30.50,WNW,292,7.2,9.0,27,0.00,,---,0.00,VWS V14.01,2013-01-27 14:37:00,
2013-01-27 09:40:00,24.4,-4.7,30.50,NW,315,7.6,10.3,27,0.00,,---,0.00,VWS V14.01,2013-01-27 14:40:00,
2013-01-27 09:42:00,24.6,-7.0,30.50,NW,315,3.8,7.6,24,0.00,,---,0.00,VWS V14.01,2013-01-27 14:42:00,
2013-01-27 09:47:00,24.6,-7.0,30.50,NW,315,6.3,9.8,24,0.00,,---,0.00,VWS V14.01,2013-01-27 14:47:00,
2013-01-27 09:50:00,25.2,-6.6,30.50,West,270,2.9,9.8,24,0.00,,---,0.00,VWS V14.01,2013-01-27 14:50:00,
2013-01-27 09:52:00,25.3,-6.4,30.50,NW,315,4.9,5.6,24,0.00,,---,0.00,VWS V14.01,2013-01-27 14:52:00,
2013-01-27 09:57:00,25.3,-6.4,30.50,NNW,338,4.0,7.2,24,0.00,,---,0.00,VWS V14.01,2013-01-27 14:57:00,
2013-01-27 10:00:00,25.0,-6.7,30.50,WNW,292,8.7,12.3,24,0.00,,---,0.00,VWS V14.01,2013-01-27 15:00:00,
2013-01-27 10:02:00,25.0,-6.7,30.50,NNE,22,11.9,12.1,24,0.00,,---,0.00,VWS V14.01,2013-01-27 15:02:00,
2013-01-27 10:07:00,25.0,-6.7,30.50,NNW,338,5.8,13.2,24,0.00,,---,0.00,VWS V14.01,2013-01-27 15:07:00,
2013-01-27 10:10:00,24.8,-6.9,30.53,NW,315,10.7,13.2,24,0.00,,---,0.00,VWS V14.01,2013-01-27 15:10:00,
2013-01-27 10:12:00,25.2,-6.6,30.53,NNE,22,5.4,10.7,24,0.00,,---,0.00,VWS V14.01,2013-01-27 15:12:00,
2013-01-27 10:18:00,25.2,-6.6,30.53,West,270,4.9,12.3,24,0.00,,---,0.00,VWS V14.01,2013-01-27 15:18:00,
2013-01-27 10:20:00,25.3,-6.4,30.53,WNW,292,7.8,12.3,24,0.00,,---,0.00,VWS V14.01,2013-01-27 15:20:00,
2013-01-27 10:23:00,25.5,-6.2,30.53,WNW,292,5.4,8.1,24,0.00,,---,0.00,VWS V14.01,2013-01-27 15:23:00,
2013-01-27 10:28:00,25.5,-6.2,30.50,NW,315,10.7,10.7,24,0.00,,---,0.00,VWS V14.01,2013-01-27 15:28:00,
2013-01-27 10:30:00,25.5,-6.2,30.50,WNW,292,4.7,10.7,24,0.00,,---,0.00,VWS V14.01,2013-01-27 15:30:00,
2013-01-27 10:33:00,25.5,-6.2,30.50,NW,315,7.6,10.5,24,0.00,,---,0.00,VWS V14.01,2013-01-27 15:33:00,
2013-01-27 10:38:00,25.9,-5.9,30.50,North,0,4.3,11.0,24,0.00,,---,0.00,VWS V14.01,2013-01-27 15:38:00,
2013-01-27 10:40:00,26.2,-5.6,30.47,NW,315,3.6,11.0,24,0.00,,---,0.00,VWS V14.01,2013-01-27 15:40:00,
2013-01-27 10:43:00,26.4,-5.5,30.47,NNW,338,3.6,6.3,24,0.00,,---,0.00,VWS V14.01,2013-01-27 15:43:00,
2013-01-27 10:48:00,26.4,-5.5,30.47,North,0,4.7,8.7,24,0.00,,---,0.00,VWS V14.01,2013-01-27 15:48:00,
2013-01-27 10:50:00,26.8,-6.0,30.47,NNE,22,4.0,8.7,23,0.00,,---,0.00,VWS V14.01,2013-01-27 15:50:00,
2013-01-27 10:53:00,27.1,-5.7,30.47,North,0,5.4,9.2,23,0.00,,---,0.00,VWS V14.01,2013-01-27 15:53:00,
2013-01-27 10:58:00,27.1,-5.7,30.50,North,0,8.1,9.2,23,0.00,,---,0.00,VWS V14.01,2013-01-27 15:58:00,
2013-01-27 11:00:00,27.0,-5.9,30.50,NW,315,5.4,9.2,23,0.00,,---,0.00,VWS V14.01,2013-01-27 16:00:00,
2013-01-27 11:03:00,27.5,-5.4,30.50,North,0,3.1,10.5,23,0.00,,---,0.00,VWS V14.01,2013-01-27 16:03:00,
2013-01-27 11:09:00,27.7,-5.3,30.50,WNW,292,2.9,10.5,23,0.00,,---,0.00,VWS V14.01,2013-01-27 16:09:00,
2013-01-27 11:10:00,27.9,-5.1,30.50,WNW,292,3.8,10.5,23,0.00,,---,0.00,VWS V14.01,2013-01-27 16:10:00,
2013-01-27 11:14:00,28.4,-4.7,30.50,NNW,338,3.1,7.4,23,0.00,,---,0.00,VWS V14.01,2013-01-27 16:14:00,
2013-01-27 11:19:00,28.0,-5.0,30.50,ENE,68,1.6,8.7,23,0.00,,---,0.00,VWS V14.01,2013-01-27 16:19:00,
2013-01-27 11:20:00,28.6,-4.5,30.50,WNW,292,2.9,8.7,23,0.00,,---,0.00,VWS V14.01,2013-01-27 16:20:00,
2013-01-27 11:24:00,28.6,-4.5,30.50,WSW,248,1.6,8.1,23,0.00,,---,0.00,VWS V14.01,2013-01-27 16:24:00,
2013-01-27 11:29:00,28.8,-4.3,30.50,WSW,248,3.6,8.1,23,0.00,,---,0.00,VWS V14.01,2013-01-27 16:29:00,
2013-01-27 11:30:00,29.1,-4.1,30.50,West,270,4.3,8.1,23,0.00,,---,0.00,VWS V14.01,2013-01-27 16:30:00,
2013-01-27 11:34:00,29.3,-3.9,30.50,WNW,292,5.6,7.8,23,0.00,,---,0.00,VWS V14.01,2013-01-27 16:34:00,
2013-01-27 11:39:00,29.5,-3.7,30.50,NNW,338,6.3,8.5,23,0.00,,---,0.00,VWS V14.01,2013-01-27 16:39:00,
2013-01-27 11:40:00,29.1,-4.1,30.47,NW,315,4.9,8.5,23,0.00,,---,0.00,VWS V14.01,2013-01-27 16:40:00,
2013-01-27 11:44:00,28.9,-4.2,30.47,NNE,22,5.6,12.5,23,0.00,,---,0.00,VWS V14.01,2013-01-27 16:44:00,
2013-01-27 11:49:00,29.3,-3.9,30.47,NW,315,5.6,12.5,23,0.00,,---,0.00,VWS V14.01,2013-01-27 16:49:00,
2013-01-27 11:50:00,29.3,-3.9,30.47,North,0,2.5,12.5,23,0.00,,---,0.00,VWS V14.01,2013-01-27 16:50:00,
2013-01-27 11:54:00,30.2,-3.1,30.47,North,0,4.9,7.6,23,0.00,,---,0.00,VWS V14.01,2013-01-27 16:54:00,
2013-01-27 11:59:00,29.8,-3.4,30.47,SW,225,5.6,8.1,23,0.00,,---,0.00,VWS V14.01,2013-01-27 16:59:00,
2013-01-27 12:00:00,30.2,-3.1,30.47,WNW,292,9.6,9.6,23,0.00,,---,0.00,VWS V14.01,2013-01-27 17:00:00,
2013-01-27 12:05:00,30.0,-3.3,30.47,NNW,338,7.2,10.7,23,0.00,,---,0.00,VWS V14.01,2013-01-27 17:05:00,
2013-01-27 12:10:00,29.8,-3.4,30.47,NW,315,6.3,10.7,23,0.00,,---,0.00,VWS V14.01,2013-01-27 17:10:00,
2013-01-27 12:15:00,29.7,-3.6,30.44,WNW,292,5.4,10.5,23,0.00,,---,0.00,VWS V14.01,2013-01-27 17:15:00,
2013-01-27 12:20:00,29.8,-3.4,30.44,WNW,292,3.4,10.5,23,0.00,,---,0.00,VWS V14.01,2013-01-27 17:20:00,
2013-01-27 12:25:00,30.2,-3.1,30.44,NNW,338,5.4,10.5,23,0.00,,---,0.00,VWS V14.01,2013-01-27 17:25:00,
2013-01-27 12:30:00,30.6,-2.8,30.44,North,0,3.8,10.5,23,0.00,,---,0.00,VWS V14.01,2013-01-27 17:30:00,
2013-01-27 12:35:00,31.1,-2.4,30.44,WNW,292,3.6,8.1,23,0.00,,---,0.00,VWS V14.01,2013-01-27 17:35:00,
2013-01-27 12:40:00,31.1,-2.4,30.44,NW,315,6.5,7.4,23,0.00,,---,0.00,VWS V14.01,2013-01-27 17:40:00,
2013-01-27 12:45:00,30.7,-2.7,30.44,NW,315,1.6,7.8,23,0.00,,---,0.00,VWS V14.01,2013-01-27 17:45:00,
2013-01-27 12:50:00,31.1,-2.4,30.44,NW,315,5.6,5.6,23,0.00,,---,0.00,VWS V14.01,2013-01-27 17:50:00,
2013-01-27 12:55:00,31.8,-1.8,30.41,NW,315,2.5,5.6,23,0.00,,---,0.00,VWS V14.01,2013-01-27 17:55:00,
2013-01-27 13:00:00,31.6,-1.9,30.42,NW,315,7.2,7.6,23,0.00,,---,0.00,VWS V14.01,2013-01-27 18:00:00,
2013-01-27 13:01:00,31.3,-2.2,30.41,West,270,4.3,7.2,23,0.00,,---,0.00,VWS V14.01,2013-01-27 18:01:00,
2013-01-27 13:06:00,31.5,-2.0,30.41,West,270,12.3,12.3,23,0.00,,---,0.00,VWS V14.01,2013-01-27 18:06:00,
2013-01-27 13:10:00,31.3,-2.2,30.44,NNW,338,4.3,12.3,23,0.00,,---,0.00,VWS V14.01,2013-01-27 18:10:00,
2013-01-27 13:11:00,31.1,-2.4,30.44,NW,315,8.7,9.8,23,0.00,,---,0.00,VWS V14.01,2013-01-27 18:11:00,
2013-01-27 13:16:00,31.5,-2.0,30.44,NW,315,5.6,9.8,23,0.00,,---,0.00,VWS V14.01,2013-01-27 18:16:00,
2013-01-27 13:20:00,31.6,-1.9,30.44,West,270,4.3,9.8,23,0.00,,---,0.00,VWS V14.01,2013-01-27 18:20:00,
2013-01-27 13:21:00,31.8,-1.8,30.44,WNW,292,3.1,7.6,23,0.00,,---,0.00,VWS V14.01,2013-01-27 18:21:00,
2013-01-27 13:26:00,31.8,-1.8,30.44,West,270,1.1,8.5,23,0.00,,---,0.00,VWS V14.01,2013-01-27 18:26:00,
2013-01-27 13:30:00,32.0,-1.6,30.44,NNW,338,3.8,9.4,23,0.00,,---,0.00,VWS V14.01,2013-01-27 18:30:00,
2013-01-27 13:31:00,32.0,-1.6,30.44,NNW,338,4.9,7.6,23,0.00,,---,0.00,VWS V14.01,2013-01-27 18:31:00,
2013-01-27 13:36:00,32.2,-1.4,30.44,NW,315,9.6,9.6,23,0.00,,---,0.00,VWS V14.01,2013-01-27 18:36:00,
2013-01-27 13:40:00,31.8,-1.8,30.44,NNW,338,7.4,10.3,23,0.00,,---,0.00,VWS V14.01,2013-01-27 18:40:00,
2013-01-27 13:41:00,31.6,-1.9,30.44,North,0,4.3,8.7,23,0.00,,---,0.00,VWS V14.01,2013-01-27 18:41:00,
2013-01-27 13:46:00,32.2,-1.4,30.44,NW,315,3.6,8.7,23,0.00,,---,0.00,VWS V14.01,2013-01-27 18:46:00,
2013-01-27 13:50:00,32.4,-1.3,30.44,SSW,202,6.5,10.1,23,0.00,,---,0.00,VWS V14.01,2013-01-27 18:50:00,
2013-01-27 13:52:00,32.4,-1.3,30.44,NW,315,3.4,7.6,23,0.00,,---,0.00,VWS V14.01,2013-01-27 18:52:00,
2013-01-27 13:57:00,32.5,-1.1,30.44,NNW,338,4.3,8.7,23,0.00,,---,0.00,VWS V14.01,2013-01-27 18:57:00,
2013-01-27 14:00:00,32.7,-1.0,30.44,NE,45,5.6,8.7,23,0.00,,---,0.00,VWS V14.01,2013-01-27 19:00:00,
2013-01-27 14:02:00,32.2,-1.4,30.44,NW,315,5.4,8.1,23,0.00,,---,0.00,VWS V14.01,2013-01-27 19:02:00,
2013-01-27 14:07:00,32.5,-1.1,30.44,WSW,248,5.4,9.8,23,0.00,,---,0.00,VWS V14.01,2013-01-27 19:07:00,
2013-01-27 14:10:00,32.5,-1.1,30.44,WNW,292,6.3,9.8,23,0.00,,---,0.00,VWS V14.01,2013-01-27 19:10:00,
2013-01-27 14:12:00,32.2,-1.4,30.44,NNW,338,4.0,8.5,23,0.00,,---,0.00,VWS V14.01,2013-01-27 19:12:00,
2013-01-27 14:17:00,32.9,-0.8,30.44,West,270,8.7,8.7,23,0.00,,---,0.00,VWS V14.01,2013-01-27 19:17:00,
2013-01-27 14:20:00,32.5,-1.1,30.44,WNW,292,6.0,8.7,23,0.00,,---,0.00,VWS V14.01,2013-01-27 19:20:00,
2013-01-27 14:22:00,32.9,-0.8,30.44,NW,315,5.4,6.5,23,0.00,,---,0.00,VWS V14.01,2013-01-27 19:22:00,
2013-01-27 14:27:00,32.9,-0.8,30.44,NNE,22,3.1,6.5,23,0.00,,---,0.00,VWS V14.01,2013-01-27 19:27:00,
2013-01-27 14:30:00,32.9,-0.8,30.44,NW,315,5.4,7.8,23,0.00,,---,0.00,VWS V14.01,2013-01-27 19:30:00,
2013-01-27 14:32:00,32.9,-0.8,30.44,NW,315,4.0,6.0,23,0.00,,---,0.00,VWS V14.01,2013-01-27 19:32:00,
2013-01-27 14:38:00,33.1,-0.7,30.44,NNW,338,2.7,6.0,23,0.00,,---,0.00,VWS V14.01,2013-01-27 19:38:00,
2013-01-27 14:40:00,33.1,-0.7,30.42,North,0,3.8,6.0,23,0.00,,---,0.00,VWS V14.01,2013-01-27 19:40:00,
2013-01-27 14:43:00,33.3,-0.5,30.41,NNW,338,4.3,8.1,23,0.00,,---,0.00,VWS V14.01,2013-01-27 19:43:00,
2013-01-27 14:48:00,33.3,-0.5,30.41,West,270,5.4,8.1,23,0.00,,---,0.00,VWS V14.01,2013-01-27 19:48:00,
2013-01-27 14:50:00,33.3,-0.5,30.42,WSW,248,6.5,8.1,23,0.00,,---,0.00,VWS V14.01,2013-01-27 19:50:00,
2013-01-27 14:53:00,33.4,-0.4,30.41,West,270,4.3,9.6,23,0.00,,---,0.00,VWS V14.01,2013-01-27 19:53:00,
2013-01-27 14:58:00,33.6,-0.2,30.44,WSW,248,4.3,9.6,23,0.00,,---,0.00,VWS V14.01,2013-01-27 19:58:00,
2013-01-27 15:00:00,33.1,-0.7,30.44,West,270,6.3,9.6,23,0.00,,---,0.00,VWS V14.01,2013-01-27 20:00:00,
2013-01-27 15:03:00,33.3,-0.5,30.44,WNW,292,1.3,6.3,23,0.00,,---,0.00,VWS V14.01,2013-01-27 20:03:00,
2013-01-27 15:08:00,33.8,-1.0,30.44,WSW,248,2.9,6.3,22,0.00,,---,0.00,VWS V14.01,2013-01-27 20:08:00,
2013-01-27 15:10:00,33.8,-1.0,30.44,NW,315,3.8,6.5,22,0.00,,---,0.00,VWS V14.01,2013-01-27 20:10:00,
2013-01-27 15:13:00,33.8,-1.0,30.44,West,270,2.5,8.1,22,0.00,,---,0.00,VWS V14.01,2013-01-27 20:13:00,
2013-01-27 15:18:00,33.8,-1.0,30.44,WNW,292,8.5,8.5,22,0.00,,---,0.00,VWS V14.01,2013-01-27 20:18:00,
2013-01-27 15:20:00,33.6,-0.2,30.44,NW,315,5.4,8.5,23,0.00,,---,0.00,VWS V14.01,2013-01-27 20:20:00,
2013-01-27 15:23:00,33.3,-0.5,30.44,NNW,338,3.8,9.8,23,0.00,,---,0.00,VWS V14.01,2013-01-27 20:23:00,
2013-01-27 15:28:00,33.3,-0.5,30.44,NW,315,4.9,9.8,23,0.00,,---,0.00,VWS V14.01,2013-01-27 20:28:00,
2013-01-27 15:30:00,33.3,-0.5,30.44,WSW,248,5.6,9.8,23,0.00,,---,0.00,VWS V14.01,2013-01-27 20:30:00,
2013-01-27 15:33:00,32.9,-0.8,30.44,WSW,248,3.1,7.4,23,0.00,,---,0.00,VWS V14.01,2013-01-27 20:33:00,
2013-01-27 15:39:00,32.7,-1.0,30.44,WNW,292,2.7,10.1,23,0.00,,---,0.00,VWS V14.01,2013-01-27 20:39:00,
2013-01-27 15:40:00,32.7,-1.0,30.44,West,270,7.4,10.1,23,0.00,,---,0.00,VWS V14.01,2013-01-27 20:40:00,
2013-01-27 15:44:00,32.7,-1.0,30.44,WNW,292,5.8,7.4,23,0.00,,---,0.00,VWS V14.01,2013-01-27 20:44:00,
2013-01-27 15:49:00,32.9,-0.8,30.44,NW,315,1.3,8.1,23,0.00,,---,0.00,VWS V14.01,2013-01-27 20:49:00,
2013-01-27 15:50:00,33.1,-0.7,30.44,West,270,3.8,8.1,23,0.00,,---,0.00,VWS V14.01,2013-01-27 20:50:00,
2013-01-27 15:54:00,33.3,-0.5,30.44,WNW,292,3.4,6.5,23,0.00,,---,0.00,VWS V14.01,2013-01-27 20:54:00,
2013-01-27 15:59:00,33.3,-0.5,30.44,West,270,4.3,8.1,23,0.00,,---,0.00,VWS V14.01,2013-01-27 20:59:00,
2013-01-27 16:00:00,33.3,-0.5,30.44,WNW,292,2.7,8.1,23,0.00,,---,0.00,VWS V14.01,2013-01-27 21:00:00,
2013-01-27 16:04:00,33.3,-0.5,30.44,WNW,292,2.0,6.0,23,0.00,,---,0.00,VWS V14.01,2013-01-27 21:04:00,
2013-01-27 16:09:00,33.1,-0.7,30.44,West,270,4.7,8.7,23,0.00,,---,0.00,VWS V14.01,2013-01-27 21:09:00,
2013-01-27 16:10:00,33.1,-0.7,30.44,West,270,2.7,8.7,23,0.00,,---,0.00,VWS V14.01,2013-01-27 21:10:00,
2013-01-27 16:14:00,33.3,-0.5,30.44,WNW,292,5.8,7.8,23,0.00,,---,0.00,VWS V14.01,2013-01-27 21:14:00,
2013-01-27 16:19:00,33.3,-0.5,30.44,NW,315,3.8,7.8,23,0.00,,---,0.00,VWS V14.01,2013-01-27 21:19:00,
2013-01-27 16:20:00,33.3,-0.5,30.44,West,270,3.8,7.8,23,0.00,,---,0.00,VWS V14.01,2013-01-27 21:20:00,
2013-01-27 16:25:00,33.1,-0.7,30.44,NW,315,3.8,4.9,23,0.00,,---,0.00,VWS V14.01,2013-01-27 21:25:00,
2013-01-27 16:30:00,33.1,-0.7,30.44,NW,315,4.9,5.8,23,0.00,,---,0.00,VWS V14.01,2013-01-27 21:30:00,
2013-01-27 16:35:00,32.9,-0.8,30.44,NNE,22,3.6,3.8,23,0.00,,---,0.00,VWS V14.01,2013-01-27 21:35:00,
2013-01-27 16:40:00,32.7,-1.0,30.44,WNW,292,3.4,5.8,23,0.00,,---,0.00,VWS V14.01,2013-01-27 21:40:00,
2013-01-27 16:45:00,32.5,-1.1,30.44,West,270,2.7,4.3,23,0.00,,---,0.00,VWS V14.01,2013-01-27 21:45:00,
2013-01-27 16:50:00,32.5,-1.1,30.44,NNW,338,1.6,4.3,23,0.00,,---,0.00,VWS V14.01,2013-01-27 21:50:00,
2013-01-27 16:55:00,32.4,-1.3,30.44,NW,315,2.9,3.8,23,0.00,,---,0.00,VWS V14.01,2013-01-27 21:55:00,
2013-01-27 17:00:00,32.2,-1.4,30.44,WNW,292,2.7,4.9,23,0.00,,---,0.00,VWS V14.01,2013-01-27 22:00:00,
2013-01-27 17:05:00,32.0,-1.6,30.44,NNW,338,3.1,4.3,23,0.00,,---,0.00,VWS V14.01,2013-01-27 22:05:00,
2013-01-27 17:10:00,31.8,-1.8,30.47,WNW,292,2.0,4.3,23,0.00,,---,0.00,VWS V14.01,2013-01-27 22:10:00,
2013-01-27 17:15:00,31.6,-1.9,30.47,NNW,338,2.0,3.6,23,0.00,,---,0.00,VWS V14.01,2013-01-27 22:15:00,
2013-01-27 17:20:00,31.5,-2.0,30.47,NW,315,2.2,2.2,23,0.00,,---,0.00,VWS V14.01,2013-01-27 22:20:00,
2013-01-27 17:25:00,31.3,-2.2,30.41,NNW,338,1.3,2.5,23,0.00,,---,0.00,VWS V14.01,2013-01-27 22:25:00,
2013-01-27 17:30:00,31.1,-2.4,30.41,NW,315,0.0,0.0,23,0.00,,---,0.00,VWS V14.01,2013-01-27 22:30:00,
2013-01-27 17:35:00,31.1,-2.4,30.41,WNW,292,1.6,3.8,23,0.00,,---,0.00,VWS V14.01,2013-01-27 22:35:00,
2013-01-27 17:40:00,30.9,-2.5,30.44,NW,315,1.3,2.0,23,0.00,,---,0.00,VWS V14.01,2013-01-27 22:40:00,
2013-01-27 17:45:00,30.6,-2.8,30.44,NW,315,1.6,2.0,23,0.00,,---,0.00,VWS V14.01,2013-01-27 22:45:00,
2013-01-27 17:50:00,30.4,-3.0,30.44,NW,315,0.0,2.0,23,0.00,,---,0.00,VWS V14.01,2013-01-27 22:50:00,
2013-01-27 17:51:00,30.4,-3.0,30.44,NW,315,0.0,0.0,23,0.00,,---,0.00,VWS V14.01,2013-01-27 22:51:00,
2013-01-27 17:56:00,30.2,-3.1,30.44,NW,315,0.0,0.0,23,0.00,,---,0.00,VWS V14.01,2013-01-27 22:56:00,
2013-01-27 18:00:00,29.8,-3.4,30.44,NW,315,0.0,0.0,23,0.00,,---,0.00,VWS V14.01,2013-01-27 23:00:00,
2013-01-27 18:01:00,29.8,-3.4,30.44,NW,315,0.0,0.0,23,0.00,,---,0.00,VWS V14.01,2013-01-27 23:01:00,
2013-01-27 18:06:00,29.5,-3.7,30.44,NW,315,0.0,0.0,23,0.00,,---,0.00,VWS V14.01,2013-01-27 23:06:00,
2013-01-27 18:10:00,28.9,-4.2,30.42,NW,315,0.0,0.0,23,0.00,,---,0.00,VWS V14.01,2013-01-27 23:10:00,
2013-01-27 18:11:00,28.9,-4.2,30.41,NW,315,0.0,0.0,23,0.00,,---,0.00,VWS V14.01,2013-01-27 23:11:00,
2013-01-27 18:16:00,28.6,-4.5,30.41,NW,315,0.0,0.0,23,0.00,,---,0.00,VWS V14.01,2013-01-27 23:16:00,
2013-01-27 18:20:00,28.4,-4.7,30.42,NW,315,0.0,0.0,23,0.00,,---,0.00,VWS V14.01,2013-01-27 23:20:00,
2013-01-27 18:21:00,28.2,-4.8,30.41,NW,315,0.0,0.0,23,0.00,,---,0.00,VWS V14.01,2013-01-27 23:21:00,
2013-01-27 18:26:00,28.0,-5.0,30.41,NW,315,0.0,0.0,23,0.00,,---,0.00,VWS V14.01,2013-01-27 23:26:00,
2013-01-27 18:30:00,27.9,-5.1,30.42,NW,315,0.0,0.0,23,0.00,,---,0.00,VWS V14.01,2013-01-27 23:30:00,
2013-01-27 18:31:00,27.9,-5.1,30.41,NW,315,0.0,0.0,23,0.00,,---,0.00,VWS V14.01,2013-01-27 23:31:00,
2013-01-27 18:37:00,27.7,-5.3,30.41,NW,315,0.0,0.0,23,0.00,,---,0.00,VWS V14.01,2013-01-27 23:37:00,
2013-01-27 18:40:00,27.5,-5.4,30.42,NW,315,0.0,0.0,23,0.00,,---,0.00,VWS V14.01,2013-01-27 23:40:00,
2013-01-27 18:42:00,27.3,-5.6,30.41,NW,315,0.0,0.0,23,0.00,,---,0.00,VWS V14.01,2013-01-27 23:42:00,
2013-01-27 18:47:00,27.1,-5.7,30.41,NW,315,0.0,0.0,23,0.00,,---,0.00,VWS V14.01,2013-01-27 23:47:00,
2013-01-27 18:50:00,27.0,-5.9,30.42,NW,315,0.0,0.0,23,0.00,,---,0.00,VWS V14.01,2013-01-27 23:50:00,
2013-01-27 18:52:00,26.8,-6.0,30.41,NW,315,0.0,0.0,23,0.00,,---,0.00,VWS V14.01,2013-01-27 23:52:00,
2013-01-27 18:57:00,26.4,-5.5,30.41,NW,315,0.0,0.0,24,0.00,,---,0.00,VWS V14.01,2013-01-27 23:57:00,
2013-01-27 19:00:00,26.2,-5.6,30.42,NW,315,0.0,0.0,24,0.00,,---,0.00,VWS V14.01,2013-01-28 00:00:00,
2013-01-27 19:02:00,26.2,-5.6,30.41,NW,315,0.0,0.0,24,0.00,,---,0.00,VWS V14.01,2013-01-28 00:02:00,
2013-01-27 19:07:00,26.1,-5.8,30.41,NW,315,0.0,0.0,24,0.00,,---,0.00,VWS V14.01,2013-01-28 00:07:00,
2013-01-27 19:10:00,25.9,-5.9,30.44,NW,315,0.0,0.0,24,0.00,,---,0.00,VWS V14.01,2013-01-28 00:10:00,
2013-01-27 19:12:00,25.9,-5.9,30.44,NNW,338,0.0,0.0,24,0.00,,---,0.00,VWS V14.01,2013-01-28 00:12:00,
2013-01-27 19:17:00,25.9,-5.9,30.44,NNE,22,0.0,0.0,24,0.00,,---,0.00,VWS V14.01,2013-01-28 00:17:00,
2013-01-27 19:20:00,26.1,-5.8,30.44,NNE,22,0.0,0.0,24,0.00,,---,0.00,VWS V14.01,2013-01-28 00:20:00,
2013-01-27 19:23:00,25.9,-5.9,30.44,NNE,22,0.0,0.0,24,0.00,,---,0.00,VWS V14.01,2013-01-28 00:23:00,
2013-01-27 19:28:00,25.7,-6.1,30.44,NNE,22,0.0,0.0,24,0.00,,---,0.00,VWS V14.01,2013-01-28 00:28:00,
2013-01-27 19:30:00,25.7,-6.1,30.44,SE,135,0.0,0.0,24,0.00,,---,0.00,VWS V14.01,2013-01-28 00:30:00,
2013-01-27 19:33:00,25.5,-6.2,30.44,SE,135,0.0,0.0,24,0.00,,---,0.00,VWS V14.01,2013-01-28 00:33:00,
2013-01-27 19:38:00,25.3,-6.4,30.44,SE,135,0.0,0.0,24,0.00,,---,0.00,VWS V14.01,2013-01-28 00:38:00,
2013-01-27 19:40:00,25.3,-6.4,30.44,SE,135,0.0,0.0,24,0.00,,---,0.00,VWS V14.01,2013-01-28 00:40:00,
2013-01-27 19:43:00,25.3,-6.4,30.44,SE,135,0.0,0.0,24,0.00,,---,0.00,VWS V14.01,2013-01-28 00:43:00,
2013-01-27 19:48:00,25.3,-6.4,30.44,East,90,0.0,0.0,24,0.00,,---,0.00,VWS V14.01,2013-01-28 00:48:00,
2013-01-27 19:50:00,25.3,-6.4,30.44,East,90,0.0,0.0,24,0.00,,---,0.00,VWS V14.01,2013-01-28 00:50:00,
2013-01-27 19:53:00,25.2,-6.6,30.44,East,90,0.0,0.0,24,0.00,,---,0.00,VWS V14.01,2013-01-28 00:53:00,
2013-01-27 19:58:00,25.0,-6.7,30.44,East,90,0.0,0.0,24,0.00,,---,0.00,VWS V14.01,2013-01-28 00:58:00,
2013-01-27 20:00:00,25.0,-6.7,30.44,East,90,0.0,0.0,24,0.00,,---,0.00,VWS V14.01,2013-01-28 01:00:00,
2013-01-27 20:03:00,25.0,-6.7,30.44,ENE,68,0.0,0.0,24,0.00,,---,0.00,VWS V14.01,2013-01-28 01:03:00,
2013-01-27 20:08:00,24.8,-6.9,30.44,NNE,22,0.0,1.3,24,0.00,,---,0.00,VWS V14.01,2013-01-28 01:08:00,
2013-01-27 20:10:00,24.8,-6.9,30.44,NNE,22,0.0,1.3,24,0.00,,---,0.00,VWS V14.01,2013-01-28 01:10:00,
2013-01-27 20:14:00,24.6,-7.0,30.44,NW,315,1.1,2.0,24,0.00,,---,0.00,VWS V14.01,2013-01-28 01:14:00,
2013-01-27 20:19:00,24.4,-7.2,30.44,NW,315,0.0,2.0,24,0.00,,---,0.00,VWS V14.01,2013-01-28 01:19:00,
2013-01-27 20:20:00,24.4,-7.2,30.44,NW,315,0.0,2.0,24,0.00,,---,0.00,VWS V14.01,2013-01-28 01:20:00,
2013-01-27 20:24:00,24.3,-7.3,30.44,NW,315,0.0,0.0,24,0.00,,---,0.00,VWS V14.01,2013-01-28 01:24:00,
2013-01-27 20:25:00,23.0,-7.6,30.24,NW,315,2.5,2.5,25,0.00,,---,0.00,VWS V14.01,2013-01-28 01:25:00,
2013-01-27 20:29:00,24.1,-7.5,30.44,NW,315,0.0,0.0,24,0.00,,---,0.00,VWS V14.01,2013-01-28 01:29:00,
2013-01-27 20:30:00,24.1,-7.5,30.44,NW,315,1.3,1.3,24,0.00,,---,0.00,VWS V14.01,2013-01-28 01:30:00,
2013-01-27 20:34:00,23.9,-7.6,30.44,NW,315,0.0,1.3,24,0.00,,---,0.00,VWS V14.01,2013-01-28 01:34:00,
2013-01-27 20:39:00,23.7,-7.8,30.44,NW,315,0.0,1.3,24,0.00,,---,0.00,VWS V14.01,2013-01-28 01:39:00,
2013-01-27 20:40:00,23.7,-7.8,30.44,North,0,0.0,1.3,24,0.00,,---,0.00,VWS V14.01,2013-01-28 01:40:00,
2013-01-27 20:44:00,23.7,-7.8,30.44,SE,135,1.3,1.6,24,0.00,,---,0.00,VWS V14.01,2013-01-28 01:44:00,
2013-01-27 20:49:00,23.5,-7.9,30.44,SE,135,0.0,1.6,24,0.00,,---,0.00,VWS V14.01,2013-01-28 01:49:00,
2013-01-27 20:50:00,23.5,-7.9,30.44,SE,135,0.0,1.6,24,0.00,,---,0.00,VWS V14.01,2013-01-28 01:50:00,
2013-01-27 20:54:00,23.5,-7.9,30.44,SE,135,0.0,0.0,24,0.00,,---,0.00,VWS V14.01,2013-01-28 01:54:00,
2013-01-27 20:59:00,23.5,-7.9,30.41,SE,135,0.0,0.0,24,0.00,,---,0.00,VWS V14.01,2013-01-28 01:59:00,
2013-01-27 21:00:00,23.5,-7.9,30.42,ESE,112,0.0,0.0,24,0.00,,---,0.00,VWS V14.01,2013-01-28 02:00:00,
2013-01-27 21:05:00,23.5,-7.9,30.41,ESE,112,0.0,0.0,24,0.00,,---,0.00,VWS V14.01,2013-01-28 02:05:00,
2013-01-27 21:10:00,23.4,-8.1,30.44,ESE,112,0.0,0.0,24,0.00,,---,0.00,VWS V14.01,2013-01-28 02:10:00,
2013-01-27 21:15:00,23.2,-8.2,30.44,ENE,68,0.0,1.3,24,0.00,,---,0.00,VWS V14.01,2013-01-28 02:15:00,
2013-01-27 21:20:00,23.2,-8.2,30.44,ENE,68,0.0,1.3,24,0.00,,---,0.00,VWS V14.01,2013-01-28 02:20:00,
2013-01-27 21:25:00,23.0,-7.6,30.24,NW,315,2.5,2.5,25,0.00,,---,0.00,VWS V14.01,2013-01-28 02:25:00,
2013-01-27 21:27:00,23.0,-7.6,30.24,ENE,68,0.0,2.5,25,0.00,,---,0.00,VWS V14.01,2013-01-28 02:27:00,
2013-01-27 21:30:00,23.0,-7.6,30.44,East,90,0.0,2.5,25,0.00,,---,0.00,VWS V14.01,2013-01-28 02:30:00,
2013-01-27 21:32:00,22.8,-6.1,30.44,South,180,0.0,0.0,27,0.00,,---,0.00,VWS V14.01,2013-01-28 02:32:00,
2013-01-27 21:37:00,22.8,-6.1,30.44,South,180,0.0,0.0,27,0.00,,---,0.00,VWS V14.01,2013-01-28 02:37:00,
2013-01-27 21:40:00,22.6,-6.3,30.44,South,180,0.0,0.0,27,0.00,,---,0.00,VWS V14.01,2013-01-28 02:40:00,
2013-01-27 21:42:00,22.6,-6.3,30.44,South,180,0.0,0.0,27,0.00,,---,0.00,VWS V14.01,2013-01-28 02:42:00,
2013-01-27 21:47:00,22.5,-6.5,30.44,West,270,0.0,0.0,27,0.00,,---,0.00,VWS V14.01,2013-01-28 02:47:00,
2013-01-27 21:50:00,22.3,-6.6,30.44,West,270,0.0,0.0,27,0.00,,---,0.00,VWS V14.01,2013-01-28 02:50:00,
2013-01-27 21:52:00,22.3,-6.6,30.44,West,270,0.0,0.0,27,0.00,,---,0.00,VWS V14.01,2013-01-28 02:52:00,
2013-01-27 21:57:00,22.1,-6.8,30.44,West,270,0.0,0.0,27,0.00,,---,0.00,VWS V14.01,2013-01-28 02:57:00,
2013-01-27 22:00:00,22.1,-6.8,30.44,West,270,0.0,0.0,27,0.00,,---,0.00,VWS V14.01,2013-01-28 03:00:00,
2013-01-27 22:02:00,22.1,-6.8,30.44,West,270,0.0,0.0,27,0.00,,---,0.00,VWS V14.01,2013-01-28 03:02:00,
2013-01-27 22:07:00,21.9,-6.9,30.44,West,270,0.0,0.0,27,0.00,,---,0.00,VWS V14.01,2013-01-28 03:07:00,
2013-01-27 22:10:00,21.9,-6.9,30.44,West,270,0.0,0.0,27,0.00,,---,0.00,VWS V14.01,2013-01-28 03:10:00,
2013-01-27 22:13:00,22.1,-6.8,30.44,East,90,0.9,0.9,27,0.00,,---,0.00,VWS V14.01,2013-01-28 03:13:00,
2013-01-27 22:18:00,22.1,-4.6,30.44,East,90,0.0,1.3,30,0.00,,---,0.00,VWS V14.01,2013-01-28 03:18:00,
2013-01-27 22:20:00,22.1,-4.6,30.44,East,90,0.0,1.3,30,0.00,,---,0.00,VWS V14.01,2013-01-28 03:20:00,
2013-01-27 22:23:00,22.1,-4.6,30.44,East,90,0.0,0.0,30,0.00,,---,0.00,VWS V14.01,2013-01-28 03:23:00,
2013-01-27 22:28:00,21.9,-4.8,30.44,East,90,0.0,0.0,30,0.00,,---,0.00,VWS V14.01,2013-01-28 03:28:00,
2013-01-27 22:30:00,21.9,-4.8,30.44,East,90,0.0,0.0,30,0.00,,---,0.00,VWS V14.01,2013-01-28 03:30:00,
2013-01-27 22:33:00,21.7,-4.9,30.44,East,90,0.0,0.0,30,0.00,,---,0.00,VWS V14.01,2013-01-28 03:33:00,
2013-01-27 22:38:00,21.7,-3.6,30.44,NW,315,0.0,0.0,32,0.00,,---,0.00,VWS V14.01,2013-01-28 03:38:00,
2013-01-27 22:40:00,21.7,-2.9,30.44,NW,315,0.0,0.0,33,0.00,,---,0.00,VWS V14.01,2013-01-28 03:40:00,
2013-01-27 22:43:00,21.7,-3.6,30.44,NW,315,0.0,0.0,32,0.00,,---,0.00,VWS V14.01,2013-01-28 03:43:00,
2013-01-27 22:48:00,21.6,-3.7,30.44,NW,315,0.0,0.0,32,0.00,,---,0.00,VWS V14.01,2013-01-28 03:48:00,
2013-01-27 22:50:00,21.6,-3.7,30.44,SW,225,0.0,0.0,32,0.00,,---,0.00,VWS V14.01,2013-01-28 03:50:00,
2013-01-27 22:53:00,21.4,-3.9,30.44,SW,225,0.0,0.0,32,0.00,,---,0.00,VWS V14.01,2013-01-28 03:53:00,
2013-01-27 22:58:00,21.4,-3.9,30.44,ESE,112,0.0,0.0,32,0.00,,---,0.00,VWS V14.01,2013-01-28 03:58:00,
2013-01-27 23:00:00,21.4,-3.9,30.44,ESE,112,0.0,0.0,32,0.00,,---,0.00,VWS V14.01,2013-01-28 04:00:00,
2013-01-27 23:04:00,21.6,-3.7,30.44,ENE,68,1.6,1.6,32,0.00,,---,0.00,VWS V14.01,2013-01-28 04:04:00,
2013-01-27 23:09:00,21.6,-3.7,30.44,ENE,68,0.0,2.0,32,0.00,,---,0.00,VWS V14.01,2013-01-28 04:09:00,
2013-01-27 23:10:00,21.6,-3.7,30.44,ENE,68,0.0,2.0,32,0.00,,---,0.00,VWS V14.01,2013-01-28 04:10:00,
2013-01-27 23:14:00,21.6,-3.7,30.44,SW,225,0.0,0.0,32,0.00,,---,0.00,VWS V14.01,2013-01-28 04:14:00,
2013-01-27 23:19:00,21.4,-3.9,30.44,SW,225,0.0,0.0,32,0.00,,---,0.00,VWS V14.01,2013-01-28 04:19:00,
2013-01-27 23:20:00,21.4,-3.9,30.44,SW,225,0.0,0.0,32,0.00,,---,0.00,VWS V14.01,2013-01-28 04:20:00,
2013-01-27 23:24:00,21.4,-3.9,30.44,SW,225,0.0,0.0,32,0.00,,---,0.00,VWS V14.01,2013-01-28 04:24:00,
2013-01-27 23:29:00,21.4,-3.9,30.44,SW,225,0.0,0.0,32,0.00,,---,0.00,VWS V14.01,2013-01-28 04:29:00,
2013-01-27 23:30:00,21.4,-3.9,30.44,SW,225,0.0,0.0,32,0.00,,---,0.00,VWS V14.01,2013-01-28 04:30:00,
2013-01-27 23:34:00,21.2,-4.0,30.44,SW,225,0.0,0.0,32,0.00,,---,0.00,VWS V14.01,2013-01-28 04:34:00,
2013-01-27 23:39:00,20.8,-3.7,30.44,SW,225,0.0,2.0,33,0.00,,---,0.00,VWS V14.01,2013-01-28 04:39:00,
2013-01-27 23:40:00,20.8,-3.7,30.44,SW,225,0.0,2.0,33,0.00,,---,0.00,VWS V14.01,2013-01-28 04:40:00,
2013-01-27 23:45:00,20.8,-3.7,30.44,North,0,0.0,0.0,33,0.00,,---,0.00,VWS V14.01,2013-01-28 04:45:00,
2013-01-27 23:50:00,20.8,-3.7,30.44,North,0,0.0,0.0,33,0.00,,---,0.00,VWS V14.01,2013-01-28 04:50:00,
2013-01-27 23:55:00,20.8,-3.7,30.44,North,0,0.0,0.0,33,0.00,,---,0.00,VWS V14.01,2013-01-28 04:55:00,